Dana Point, CA (92629)

11:25 AM PDT on April 24, 2017 (GMT -0700)
| | Change Station
Active Advisory: Beach Hazard Statement

Elev -9999 ft 0.00 °N, 0.00 °E | Updated 7 minutes ago

Overcast
Overcast
°F
Feels Like °F
N
Wind Variable Wind from North
Gusts mph

Today
High -- | Low -- °F
--% Chance of Precip.
Yesterday
High -- | Low -- °F
Precip. -- in
Pressure 29.95 in
Visibility 10.0 miles
Clouds Scattered Clouds 2300 ft
Mostly Cloudy 3000 ft
Mostly Cloudy 20000 ft
Dew Point Not available.
Humidity Not available.
Rainfall --
Snow Depth Not available.
6:09 AM 7:28 PM
Waning Crescent, 4% visible
METAR KSNA 241753Z 18009G18KT 10SM SCT023 BKN030 BKN200 19/13 A2995 RMK AO2 SLP142 T01940128 10200 20167 51012
Pressure 29.95 in
Visibility 10.0 miles
Clouds Scattered Clouds 2300 ft
Mostly Cloudy 3000 ft
Mostly Cloudy 20000 ft
Dew Point Not available.
Humidity Not available.
Rainfall --
Snow Depth Not available.
6:09 AM 7:28 PM
Waning Crescent, 4% visible
METAR KSNA 241753Z 18009G18KT 10SM SCT023 BKN030 BKN200 19/13 A2995 RMK AO2 SLP142 T01940128 10200 20167 51012

Get Your Daily Forecast Email!

Thanks for signing up!

Be on the lookout for a verification email in your inbox.

You'll start receiving severe weather alerts in your inbox..

×

10-Day Weather Forecast

Almanac

Astronomy

Apr. 24, 2017 Rise Set
Actual Time
Civil Twilight
Nautical Twilight
Astronomical Twilight
Moon
Length of Visible Light
Length of Day
Tomorrow will be .
, % of the Moon is Illuminated

Today's Extremes

State Highs State Lows

Community

WunderPhotos

WunderBlog® & News

Nearby

Air Quality

  Air Quality AQ Index Pollutant
Not available.

Snow Depth

Station Depth Elevation

Earthquake Activity

City Distance Mag. Time & Date
Minimum magnitude displayed is 2.5.

Coastal Water Temperatures

Place Temperature

Stations

Nearby Weather Stations

Station Location Temp. Windchill Dew Point Humidity Wind Precip. Elev Updated Type
                   

Watches & Warnings

Beach Hazard Statement
Issued: 2:13 AM PDT Apr. 24, 2017 – National Weather Service

... Beach hazards statement remains in effect through this
evening...

* waves and surf... surf 3 to 6 feet with occasional sets to 7 feet
through this evening.

* Impacts... dangerous conditions in the surf zone due to
elevated surf and strong rip currents.

Precautionary/preparedness actions...

Swim near a lifeguard. If caught in a rip current... relax and
float. Do not swim against the current. If able... swim in a
direction following the shoreline. If unable to escape... face the
shore and call or wave for help.